When you browse on this site, cookies collect data to enhance your experience and personalize the content and advertising you see.
Visit our Privacy Policy to learn more. By continuing to use the site, you agree to this use of cookies and data.
  • In Spain
  • List of Countries
  • For 7 days
  • Water Temperature
  • Weather Map
  • Weather Widgets
  • user-avatar
    Login

    Hourly Weather Chichester

    Today, 18 January, Saturday

    Time Temperature Precipitation Wind Pressure Humidity
    00:00 +2°C° 0 mm 7 mps 764 mmHg 87%
    01:00 +1°C° 0 mm 6 mps 764 mmHg 87%
    02:00 +1°C° 0 mm 5 mps 765 mmHg 88%
    03:00 +1°C° 0 mm 5 mps 765 mmHg 88%
    04:00 +1°C° 0 mm 4 mps 766 mmHg 88%
    05:00 +2°C° 0 mm 3 mps 766 mmHg 87%
    06:00 +1°C° 0 mm 3 mps 767 mmHg 87%
    07:00 +2°C° 0 mm 2 mps 767 mmHg 86%
    08:00 +3°C° 0 mm 2 mps 768 mmHg 85%
    09:00 +3°C° 0 mm 2 mps 768 mmHg 85%
    10:00 +4°C° 0 mm 2 mps 769 mmHg 80%
    11:00 +5°C° 0 mm 2 mps 769 mmHg 76%
    12:00 +5°C° 0 mm 3 mps 769 mmHg 72%
    13:00 +5°C° 0 mm 3 mps 770 mmHg 73%
    14:00 +5°C° 0 mm 3 mps 770 mmHg 74%
    15:00 +5°C° 0 mm 3 mps 770 mmHg 75%
    16:00 +4°C° 0 mm 3 mps 771 mmHg 79%
    17:00 +3°C° 0 mm 3 mps 771 mmHg 82%
    18:00 +1°C° 0 mm 4 mps 772 mmHg 85%
    19:00 +1°C° 0 mm 4 mps 773 mmHg 86%
    20:00 +1°C° 0 mm 4 mps 773 mmHg 86%
    21:00 +1°C° 0 mm 4 mps 774 mmHg 87%
    22:00 0°C° 0 mm 4 mps 774 mmHg 87%
    23:00 0°C° 0 mm 4 mps 775 mmHg 88%

    Tomorrow, 19 January, Sunday

    Time Temperature Precipitation Wind Pressure Humidity
    00:00 0°C° 0 mm 5 mps 776 mmHg 88%
    01:00 0°C° 0 mm 5 mps 776 mmHg 89%
    02:00 0°C° 0 mm 5 mps 776 mmHg 90%
    03:00 -1°C° 0 mm 5 mps 777 mmHg 91%
    04:00 -1°C° 0 mm 5 mps 777 mmHg 90%
    05:00 -1°C° 0 mm 4 mps 778 mmHg 90%
    06:00 -1°C° 0 mm 4 mps 779 mmHg 90%
    07:00 -1°C° 0 mm 4 mps 779 mmHg 88%
    08:00 -1°C° 0 mm 4 mps 780 mmHg 87%
    09:00 0°C° 0 mm 4 mps 781 mmHg 85%
    10:00 +1°C° 0 mm 4 mps 781 mmHg 81%
    11:00 +3°C° 0 mm 4 mps 781 mmHg 78%
    12:00 +4°C° 0 mm 4 mps 782 mmHg 74%
    13:00 +5°C° 0 mm 4 mps 782 mmHg 75%
    14:00 +5°C° 0 mm 4 mps 782 mmHg 75%
    15:00 +5°C° 0 mm 4 mps 782 mmHg 76%
    16:00 +4°C° 0 mm 4 mps 783 mmHg 79%
    17:00 +3°C° 0 mm 4 mps 783 mmHg 82%
    18:00 0°C° 0 mm 4 mps 783 mmHg 85%
    19:00 +1°C° 0 mm 3 mps 783 mmHg 84%
    20:00 +1°C° 0 mm 3 mps 784 mmHg 83%
    21:00 +1°C° 0 mm 3 mps 784 mmHg 82%
    22:00 +2°C° 0 mm 2 mps 784 mmHg 81%
    23:00 +2°C° 0 mm 2 mps 784 mmHg 80%

    Day after tomorrow, 20 January, Monday

    Time Temperature Precipitation Wind Pressure Humidity
    00:00 +2°C° 0 mm 2 mps 784 mmHg 79%
    01:00 +2°C° 0 mm 2 mps 784 mmHg 78%
    02:00 +1°C° 0 mm 2 mps 784 mmHg 77%
    03:00 +1°C° 0 mm 2 mps 784 mmHg 76%
    04:00 +2°C° 0 mm 2 mps 784 mmHg 75%
    05:00 +2°C° 0 mm 2 mps 784 mmHg 74%
    06:00 +2°C° 0 mm 2 mps 784 mmHg 74%
    07:00 +2°C° 0 mm 2 mps 784 mmHg 74%
    08:00 +2°C° 0 mm 2 mps 784 mmHg 74%
    09:00 +3°C° 0 mm 1 mps 784 mmHg 74%
    10:00 +4°C° 0 mm 1 mps 784 mmHg 70%
    11:00 +6°C° 0 mm 1 mps 783 mmHg 66%
    12:00 +7°C° 0 mm 1 mps 783 mmHg 62%
    13:00 +7°C° 0 mm 1 mps 783 mmHg 64%
    14:00 +7°C° 0 mm 1 mps 782 mmHg 66%
    15:00 +6°C° 0 mm 2 mps 782 mmHg 68%
    16:00 +5°C° 0 mm 2 mps 782 mmHg 71%
    17:00 +4°C° 0 mm 2 mps 782 mmHg 73%
    18:00 +3°C° 0 mm 2 mps 782 mmHg 76%
    19:00 +2°C° 0 mm 2 mps 782 mmHg 75%
    20:00 +2°C° 0 mm 2 mps 782 mmHg 74%
    21:00 +2°C° 0 mm 2 mps 782 mmHg 74%
    22:00 +2°C° 0 mm 2 mps 782 mmHg 73%
    23:00 +2°C° 0 mm 2 mps 782 mmHg 73%

    21 January, Tuesday

    Time Temperature Precipitation Wind Pressure Humidity
    00:00 +2°C° 0 mm 2 mps 781 mmHg 73%
    01:00 +3°C° 0 mm 1 mps 781 mmHg 74%
    02:00 +3°C° 0 mm 1 mps 781 mmHg 76%
    03:00 +3°C° 0 mm 1 mps 780 mmHg 77%
    04:00 +3°C° 0 mm 1 mps 780 mmHg 79%
    05:00 +3°C° 0 mm 1 mps 780 mmHg 80%
    06:00 +3°C° 0 mm 1 mps 780 mmHg 82%
    07:00 +3°C° 0 mm 1 mps 780 mmHg 81%
    08:00 +3°C° 0 mm 1 mps 780 mmHg 80%
    09:00 +3°C° 0 mm 1 mps 780 mmHg 79%
    10:00 +5°C° 0 mm 1 mps 780 mmHg 74%
    11:00 +6°C° 0 mm 1 mps 780 mmHg 69%
    12:00 +7°C° 0 mm 1 mps 780 mmHg 64%
    13:00 +7°C° 0 mm 1 mps 779 mmHg 65%
    14:00 +6°C° 0 mm 2 mps 779 mmHg 66%
    15:00 +6°C° 0 mm 2 mps 779 mmHg 66%
    16:00 +5°C° 0 mm 2 mps 778 mmHg 69%
    17:00 +3°C° 0 mm 2 mps 778 mmHg 71%
    18:00 +2°C° 0 mm 2 mps 778 mmHg 74%
    19:00 +2°C° 0 mm 2 mps 778 mmHg 76%
    20:00 +2°C° 0 mm 2 mps 778 mmHg 77%
    21:00 +1°C° 0 mm 2 mps 778 mmHg 79%
    22:00 +1°C° 0 mm 2 mps 778 mmHg 82%
    23:00 +1°C° 0 mm 2 mps 778 mmHg 84%

    22 January, Wednesday

    Time Temperature Precipitation Wind Pressure Humidity
    00:00 +1°C° 0 mm 3 mps 778 mmHg 87%
    01:00 0°C° 0 mm 3 mps 778 mmHg 89%
    02:00 -1°C° 0 mm 4 mps 778 mmHg 91%
    03:00 -1°C° 0 mm 4 mps 778 mmHg 94%
    04:00 -1°C° 0 mm 4 mps 777 mmHg 94%
    05:00 -1°C° 0 mm 4 mps 777 mmHg 94%
    06:00 -1°C° 0 mm 4 mps 777 mmHg 95%
    07:00 0°C° 0 mm 4 mps 777 mmHg 95%
    08:00 0°C° 0 mm 4 mps 777 mmHg 95%
    09:00 0°C° 0 mm 4 mps 777 mmHg 95%
    10:00 +3°C° 0 mm 4 mps 777 mmHg 93%
    11:00 +3°C° 0 mm 5 mps 777 mmHg 92%
    12:00 +4°C° 0 mm 6 mps 777 mmHg 90%
    13:00 +4°C° 0 mm 6 mps 777 mmHg 90%
    14:00 +5°C° 0 mm 6 mps 776 mmHg 90%
    15:00 +5°C° 0 mm 6 mps 776 mmHg 90%
    16:00 +4°C° 0 mm 6 mps 776 mmHg 92%
    17:00 +3°C° 0 mm 5 mps 776 mmHg 94%
    18:00 +2°C° 0 mm 5 mps 776 mmHg 97%
    19:00 +3°C° 0 mm 5 mps 776 mmHg 96%
    20:00 +3°C° 0 mm 6 mps 776 mmHg 96%
    21:00 +4°C° 0 mm 6 mps 776 mmHg 96%
    22:00 +4°C° 0 mm 6 mps 775 mmHg 95%
    23:00 +4°C° 0 mm 6 mps 775 mmHg 94%

    23 January, Thursday

    Time Temperature Precipitation Wind Pressure Humidity
    00:00 +4°C° 0 mm 6 mps 775 mmHg 93%
    01:00 +3°C° 0 mm 5 mps 775 mmHg 94%
    02:00 +2°C° 0 mm 5 mps 774 mmHg 94%
    03:00 +2°C° 0 mm 5 mps 774 mmHg 95%
    04:00 +2°C° 0 mm 5 mps 774 mmHg 94%
    05:00 +2°C° 0 mm 6 mps 773 mmHg 93%
    06:00 +2°C° 0 mm 6 mps 773 mmHg 92%
    07:00 +2°C° 0 mm 6 mps 773 mmHg 91%
    08:00 +2°C° 0 mm 7 mps 773 mmHg 89%
    09:00 +2°C° 0 mm 7 mps 773 mmHg 87%
    10:00 +2°C° 0 mm 8 mps 772 mmHg 83%
    11:00 +4°C° 0 mm 8 mps 772 mmHg 80%
    12:00 +4°C° 0 mm 8 mps 772 mmHg 76%
    13:00 +4°C° 0 mm 8 mps 771 mmHg 77%
    14:00 +4°C° 0 mm 8 mps 770 mmHg 78%
    15:00 +4°C° 0 mm 7 mps 770 mmHg 78%
    16:00 +4°C° 0 mm 7 mps 770 mmHg 82%
    17:00 +3°C° 0 mm 7 mps 770 mmHg 86%
    18:00 +2°C° 0 mm 7 mps 769 mmHg 89%
    19:00 +2°C° 0 mm 6 mps 769 mmHg 90%
    20:00 +1°C° 0 mm 6 mps 769 mmHg 90%
    21:00 +1°C° 0 mm 5 mps 769 mmHg 91%
    22:00 +1°C° 0 mm 5 mps 769 mmHg 91%
    23:00 +1°C° 0 mm 4 mps 769 mmHg 91%
    Show more